Content
SEND FEEDBACK

Daily
Averages
Monthly
Summary
United States of America

CHELSEA, MICHIGAN


Home > North America > United States > Michigan
Elevation: 900 feet     Latitude: 42 19N     Longitude: 084 01W

WEATHER
 
SELECT A DAY
Number of Records: 206,204;   Date Range: 1/1/95 - 9/28/14
 
SHARE

PRINT THIS DATA

[ ← Previous Day ]
WEATHER ALMANAC - MARCH 6, 2013
[ Next Day → ]
[ °C ]   °F
Weather ElementAverageHighLow
Temperature33.9 °F39.2 °F (12:22 pm)26.6 °F (2:03 am)
Dewpoint25.9 °F28.4 °F (12:22 pm)21.2 °F (2:03 am)
Humidity72.6 %82 % (7:53 am)61 % (2:18 pm)
Barometer30.07 in30.22 in (8:53 pm)29.84 in (2:03 am)
Wind Speed7.5 mph13.8 mph (2:03 am)
Wind Gust21.9 mph (3:51 am)
Weather ElementAverage
Visibility10 mi
Wind DirectionSE (131.3 °)

Weather ElementTotal
Precipitation---
Heating Degree Days32.1 (Base 65)
Averaged from 32 records on March 6, 2013
WEATHER CONDITIONS BREAKOUT
WIND DIRECTION BREAKOUT
WEATHER BY HOUR - MARCH 6, 2013
[ °C ]   °F
Local TimeTemperatureDewpointHumidityBarometerVisibilityWind DirectionWind SpeedGust SpeedPrecipitationEventsConditions
1:53 AM27.0 °F21.9 °F81 %29.86 in10.0 miNNE (30°)12.7 mphScattered Clouds
2:03 AM26.6 °F21.2 °F80 %29.84 in10.0 miNNE (30°)13.8 mphMostly Cloudy
2:53 AM27.0 °F21.9 °F81 %29.88 in10.0 miNNE (20°)13.8 mph20.7 mphOvercast
3:51 AM28.4 °F23.0 °F80 %29.86 in10.0 miNNE (30°)11.5 mph21.9 mphPartly Cloudy
3:53 AM28.0 °F23.0 °F81 %29.88 in10.0 miNNE (30°)11.5 mph21.9 mphPartly Cloudy
4:53 AM28.0 °F23.0 °F81 %29.91 in10.0 miNNE (20°)10.4 mphClear
5:53 AM28.0 °F23.0 °F81 %29.95 in10.0 miNNE (20°)11.5 mphClear
6:53 AM28.0 °F23.0 °F81 %29.99 in10.0 miNNE (20°)10.4 mphClear
7:53 AM28.9 °F24.1 °F82 %30.02 in10.0 miNorth (360°)5.8 mphClear
8:53 AM32.0 °F25.0 °F75 %30.06 in10.0 miNorth (10°)10.4 mphPartly Cloudy
9:39 AM33.8 °F26.6 °F75 %30.05 in10.0 miNNE (20°)12.7 mphMostly Cloudy
9:53 AM35.1 °F27.0 °F72 %30.09 in10.0 miNorth (10°)10.4 mphMostly Cloudy
10:06 AM35.6 °F26.6 °F70 %30.06 in10.0 miNNE (20°)8.1 mph17.3 mphScattered Clouds
10:13 AM35.6 °F26.6 °F70 %30.06 in10.0 miVariable6.9 mphMostly Cloudy
10:53 AM37.9 °F27.0 °F65 %30.10 in10.0 miNE (40°)9.2 mphMostly Cloudy
11:24 AM37.4 °F26.6 °F65 %30.07 in10.0 miENE (60°)8.1 mphScattered Clouds
11:53 AM39.0 °F28.0 °F65 %30.10 in10.0 miNE (40°)5.8 mphMostly Cloudy
12:06 PM37.4 °F26.6 °F65 %30.08 in10.0 miENE (70°)5.8 mphScattered Clouds
12:22 PM39.2 °F28.4 °F65 %30.09 in10.0 miNorth (10°)5.8 mphMostly Cloudy
12:53 PM39.0 °F27.0 °F62 %30.13 in10.0 miCalmOvercast
1:53 PM39.0 °F28.0 °F65 %30.13 in10.0 miNorth (360°)4.6 mphOvercast
2:18 PM39.2 °F26.6 °F61 %30.11 in10.0 miNNW (340°)3.5 mphOvercast
2:53 PM39.0 °F27.0 °F62 %30.13 in10.0 miNorth (350°)6.9 mphOvercast
3:53 PM37.9 °F28.0 °F68 %30.14 in10.0 miNorth (350°)5.8 mphOvercast
4:53 PM37.0 °F28.0 °F70 %30.16 in10.0 miNW (320°)9.2 mphOvercast
5:53 PM36.0 °F28.0 °F73 %30.18 in10.0 miNW (320°)4.6 mphOvercast
6:53 PM35.1 °F27.0 °F72 %30.19 in10.0 miNW (310°)5.8 mphOvercast
7:53 PM35.1 °F27.0 °F72 %30.21 in10.0 miNNW (330°)5.8 mphOvercast
8:53 PM34.0 °F27.0 °F75 %30.22 in10.0 miNNW (330°)4.6 mphOvercast
9:53 PM34.0 °F27.0 °F75 %30.22 in10.0 miCalmOvercast
10:53 PM34.0 °F27.0 °F75 %30.22 in10.0 miCalmOvercast
11:53 PM34.0 °F28.0 °F79 %30.22 in10.0 miNorth (350°)3.5 mphOvercast
Hourly data recorded from KARB, located miles away from Chelsea, Michigan







STORIES FROM OUR PARTNERS